Flag for Russia Weather past 2 weeks in Yakutsk, Russia

Now
-17 °F

Clear.


Feels Like: -34 °F
Forecast: -36 / -15 °F
Wind: 8 mph from Northwest

Location: Jakutsk

Current Time: Feb 1, 2015 at 11:53:19 PM

Latest Report: Feb 1, 2015 at 11:30 PM


Visibility: 10 mi

Pressure: 30.51 "Hg

Humidity: 63%

Dew point: -26 °F

Location of YakutskLocation

Historic Weather in Yakutsk — Graph

°F

Yakutsk temperature yesterday

Maximum temperature yesterday: -9 °F (at 11:30 PM)
Minimum temperature yesterday: -35 °F (at 6:00 AM)
Average temperature yesterday: -26 °F

Past Weeks' High & Low Weather Summary

 TemperatureHumidityPressure
High10 °F (Feb 1, 7:00 AM)92% (Feb 1, 2:30 AM)30.48 "Hg (Feb 1, 2:30 AM)
Low-42 °F (Jan 26, 4:30 AM)52% (Feb 1, 9:30 PM)29.62 "Hg (Feb 1, 3:30 AM)
Average-26 °F71%30.04 "Hg
* Reported Jan 17 10:00 PM — Feb 1 10:30 PM, Yakutsk, Weather by CustomWeather, © 2014

Note: Actual official high and low records may vary slightly from our data, if they occured in-between our weather recording intervals... More about our weather records

Advertising

Yakutsk weather history for previous 24 hours

 ConditionsComfort  
Time TempWeatherWind HumidityBarometerVisibility
10:30 PM
Feb 1
-13 °FClear.13 mph57%30.48 "Hg10 mi
10:00 PM-13 °FClear.10 mph57%30.45 "Hg10 mi
9:30 PM-11 °FClear.10 mph52%30.42 "Hg10 mi
9:00 PM-11 °FClear.13 mph58%30.39 "Hg10 mi
8:30 PM-9 °FClear.8 mph64%30.39 "Hg10 mi
8:00 PM-8 °FClear.6 mph64%30.36 "Hg10 mi
7:30 PM-6 °FMostly cloudy.17 mph59%30.33 "HgN/A
7:00 PM-4 °FMostly cloudy.17 mph59%30.30 "HgN/A
6:30 PM-2 °FClear.15 mph65%30.27 "Hg10 mi
6:00 PM0 °FClear.15 mph60%30.24 "Hg10 mi
5:30 PM0 °FClear.15 mph65%30.21 "Hg10 mi
5:00 PM1 °FMostly cloudy.10 mph65%30.18 "HgN/A
4:30 PM3 °FMostly cloudy.13 mph66%30.15 "HgN/A
4:00 PM3 °FSnow flurries. More clouds than sun.13 mph78%30.12 "HgN/A
3:30 PM5 °FMore clouds than sun.17 mph66%30.07 "HgN/A
3:00 PM5 °FMore clouds than sun.20 mph66%30.04 "HgN/A
2:30 PM7 °FMore clouds than sun.22 mph66%30.01 "HgN/A
2:00 PM7 °FMore clouds than sun.17 mph66%30.01 "HgN/A
1:30 PM7 °FMore clouds than sun.15 mph78%29.98 "HgN/A
1:00 PM9 °FMore clouds than sun.17 mph66%29.95 "HgN/A
12:30 PM9 °FMore clouds than sun.15 mph72%29.92 "HgN/A
12:00 PM9 °FMore clouds than sun.15 mph78%29.89 "HgN/A
11:30 AM9 °FMore clouds than sun.15 mph72%29.89 "HgN/A
11:00 AM7 °FMore clouds than sun.15 mph85%29.86 "HgN/A
10:30 AM9 °FMore clouds than sun.15 mph78%29.83 "HgN/A
10:00 AM9 °FMore clouds than sun.15 mph85%29.83 "HgN/A
9:30 AM9 °FMore clouds than sun.17 mph85%29.80 "HgN/A
9:00 AM9 °FMore clouds than sun.20 mph85%29.77 "HgN/A
8:30 AM9 °FOvercast.15 mph85%29.74 "HgN/A
8:00 AM10 °FOvercast.17 mph79%29.74 "HgN/A
7:30 AM9 °FClear.15 mph92%29.71 "Hg10 mi
7:00 AM10 °FPassing clouds.13 mph85%29.68 "HgN/A
6:30 AM7 °FPassing clouds.8 mph85%29.68 "HgN/A
5:30 AM7 °FPartly cloudy.8 mph92%29.65 "HgN/A
5:00 AM7 °FPartly cloudy.8 mph92%29.65 "HgN/A
4:30 AM9 °FLight snow. Mostly cloudy.8 mph85%29.65 "HgN/A
4:00 AM9 °FLight snow. Overcast.6 mph85%29.62 "HgN/A
3:30 AM7 °FLight snow. Mostly cloudy.6 mph92%29.62 "Hg3 mi
3:00 AM7 °FSnow. Ice fog.6 mph85%29.65 "Hg1 mi
2:30 AM3 °FSnow. Ice fog.3 mph92%29.65 "Hg1 mi
2:00 AM-2 °FSnow. Ice fog.1 mph84%29.65 "Hg1 mi
1:30 AM-2 °FHeavy snow. Ice fog.3 mph84%29.65 "Hg1 mi
1:00 AM-4 °FHeavy snow. Ice fog.No wind84%29.65 "Hg1 mi
12:30 AM-6 °FSnow. Mostly cloudy.No wind77%29.68 "Hg1 mi
12:00 AM-8 °FSnow. Mostly cloudy.No wind84%29.71 "Hg1 mi
11:30 PM
Jan 31
-9 °FLight snow. Mostly cloudy.No wind84%29.71 "Hg2 mi
11:00 PM-11 °FLight snow. Mostly cloudy.No wind84%29.74 "Hg2 mi
Weather by CustomWeather, © 2014

See weather overviewHow to use our weather pages